Wind_Speed
39 38 38 38 36 35 35 36 36 35 35 35 35 35 34 33 33 32 32 31 30 28 27 26 25 23 22 22 22 21 22 22 22 22 22 22 23 23 24 24 24 24 23 21 21 21 21 22 24 25 25 26 26 27 27 28 28 28 29 29 30 30 30 30 30 31 31 31 31 31 30 30 30 30 30 29 29 30 29 28 29 30 30 28 26 25 24
38 40 40 41 41 40 40 40 40 39 38 38 38 38 37 37 37 36 35 34 33 32 31 29 28 27 26 25 25 25 25 25 24 25 25 26 26 26 27 26 26 26 26 25 25 25 25 26 27 28 29 29 30 30 31 31 31 32 32 33 33 33 33 34 34 34 35 35 34 35 35 34 34 34 33 33 32 32 31 31 30 30 31 30 28 28 26
28 32 36 39 41 43 43 44 44 43 42 42 42 41 40 40 39 38 37 37 36 36 34 33 32 30 28 28 28 28 28 28 28 28 28 28 29 29 29 29 29 29 30 30 31 31 31 31 31 32 33 33 33 34 34 34 34 35 35 36 37 37 38 38 39 39 39 39 39 39 39 38 38 37 36 36 35 34 34 34 33 32 33 33 32 31 30
25 25 27 30 34 38 41 43 44 45 46 46 45 44 43 42 41 40 39 39 38 38 37 36 35 33 31 30 30 31 31 32 31 31 31 31 31 32 31 31 31 32 33 34 35 35 35 35 35 35 36 36 36 36 37 37 38 38 39 40 40 41 42 42 43 43 43 43 43 42 42 41 41 40 39 38 38 37 36 35 35 35 36 36 34 33 32
28 26 25 26 28 30 32 34 36 38 40 41 43 43 43 43 43 42 41 40 40 41 40 39 37 36 35 33 33 33 34 34 34 34 34 34 34 34 35 35 35 36 37 38 38 39 39 39 39 39 39 39 40 40 41 41 42 43 43 44 44 45 45 45 44 43 43 43 43 43 43 42 41 40 40 39 39 39 38 38 38 37 37 38 37 37 37
28 28 27 27 28 27 26 26 28 29 29 30 32 34 37 40 41 41 42 41 40 41 42 41 38 36 36 35 35 35 36 36 37 37 37 37 37 38 38 39 39 40 41 41 42 42 42 42 42 42 42 43 44 45 46 46 46 47 47 47 47 46 46 45 43 42 42 43 42 41 41 42 42 41 41 40 39 38 38 38 39 38 38 38 40 40 39
28 29 29 28 28 26 25 26 26 27 27 26 26 26 28 30 32 34 36 36 35 37 38 38 36 35 35 35 35 36 37 38 39 40 40 41 42 43 44 44 44 44 44 44 45 45 45 45 45 45 46 46 45 46 47 47 47 47 48 48 47 45 44 43 44 44 44 43 40 39 38 38 39 40 40 39 39 39 38 39 40 40 40 42 43 42 40
29 29 30 29 28 27 26 27 28 29 29 29 29 27 27 27 28 29 30 30 31 32 33 33 34 34 34 34 35 35 36 38 40 40 41 41 42 44 45 47 47 47 47 47 48 48 49 49 49 49 48 46 43 42 43 44 44 46 47 48 48 47 46 47 48 47 45 42 40 38 36 35 35 36 36 37 38 40 40 41 43 44 44 45 45 44 41
32 30 30 30 30 29 29 29 29 29 29 30 30 29 29 30 31 31 32 32 32 32 32 33 34 35 36 37 38 39 40 41 42 43 43 43 43 43 45 48 49 50 50 51 51 52 52 52 52 51 50 48 46 45 44 44 44 44 45 46 47 47 47 48 47 46 44 43 42 40 36 34 35 35 35 36 37 38 39 41 43 44 43 43 43 42 41
34 33 31 30 30 29 28 28 29 30 30 31 31 31 31 32 33 33 34 34 34 34 34 35 35 36 37 39 41 42 44 45 46 46 47 47 48 49 50 52 53 53 53 54 55 55 55 55 55 54 53 52 51 51 51 50 48 47 46 46 46 46 47 47 47 47 47 46 46 44 41 39 38 39 39 39 38 37 37 38 39 41 42 42 42 41 41
32 32 32 31 30 29 29 29 30 31 32 33 33 34 35 35 35 35 34 35 35 35 35 35 35 36 38 39 41 42 44 46 47 48 49 50 52 53 54 55 56 56 57 58 59 59 59 59 59 59 58 58 58 58 58 58 57 56 55 54 54 55 55 55 55 54 54 52 50 48 48 46 44 43 42 42 42 42 40 39 39 40 41 42 42 42 42
35 35 35 34 34 33 32 32 32 33 34 35 37 38 38 36 35 35 35 35 35 35 36 36 36 37 38 39 41 42 44 45 47 49 50 52 53 54 56 57 58 58 59 60 61 61 62 62 63 63 63 62 62 62 63 63 63 63 63 63 63 63 62 62 61 60 59 57 55 53 53 53 51 49 48 47 47 47 47 47 46 46 46 46 46 47 48
40 40 40 40 40 39 38 37 37 37 37 38 38 38 37 36 36 36 37 37 37 38 38 38 39 39 40 41 42 43 44 46 47 49 50 52 53 54 55 56 57 59 59 60 61 61 62 62 63 63 63 63 63 63 64 64 65 65 65 65 65 64 63 62 61 60 59 58 58 57 58 58 59 59 58 55 53 52 52 52 52 51 50 50 50 50 51
40 40 41 42 43 43 43 42 41 40 39 39 38 37 37 37 37 38 39 39 40 40 41 41 42 43 43 44 45 46 47 48 49 50 51 52 54 55 56 56 57 58 59 60 61 61 62 62 62 62 62 63 63 64 64 65 65 65 65 65 65 64 64 63 62 61 59 58 58 57 57 59 60 61 61 60 58 57 57 56 55 53 51 49 49 49 47
42 42 43 43 43 43 43 43 42 41 41 40 39 39 39 39 39 39 40 41 41 42 43 44 45 45 46 47 48 48 49 50 51 52 53 54 55 56 56 57 58 58 59 60 60 61 62 62 63 63 63 63 64 64 64 65 66 66 65 65 65 64 64 63 62 62 60 59 58 57 56 56 57 57 57 57 57 57 57 56 55 53 51 50 49 48 46
42 43 44 44 44 44 44 43 43 43 43 43 42 42 42 42 42 42 42 43 44 45 46 46 47 48 48 49 50 51 52 53 54 54 55 55 55 55 56 56 57 57 58 58 58 58 59 60 61 62 62 63 63 64 64 65 66 66 66 66 66 65 65 65 64 64 63 62 60 59 58 56 55 54 53 52 52 54 55 54 52 50 49 48 49 48 47
41 41 41 42 42 42 42 42 42 43 43 43 43 43 43 43 43 44 44 44 44 45 46 46 47 47 48 48 49 50 51 52 53 53 54 53 53 53 54 55 55 55 56 56 56 56 57 59 60 62 63 64 65 65 66 66 67 66 66 66 66 65 65 64 64 63 63 62 62 61 60 59 58 57 55 53 52 53 55 56 55 53 51 50 49 50 49
39 39 39 39 39 39 40 40 40 41 41 42 42 42 42 43 43 44 44 44 44 44 45 45 46 46 47 47 48 49 50 50 51 52 52 52 52 52 53 54 54 55 56 57 57 58 60 62 63 65 66 67 67 67 67 68 68 68 68 68 68 67 66 66 65 64 63 62 62 61 60 60 59 59 58 57 55 54 55 57 58 59 59 57 54 53 54
36 36 37 37 38 38 38 38 38 38 38 39 40 40 41 41 41 42 42 42 42 42 43 43 44 45 45 45 46 47 47 48 49 50 51 52 53 53 54 55 56 57 58 60 62 63 64 64 64 64 64 64 64 65 65 65 66 67 68 68 69 69 69 68 68 67 67 66 65 63 62 61 60 59 59 59 58 57 56 56 57 59 60 60 59 59 59
33 34 35 36 36 37 37 37 37 37 36 36 35 35 35 36 36 37 38 39 39 40 40 41 42 43 44 44 45 45 46 47 48 49 50 52 54 55 57 58 60 62 64 66 66 66 64 63 62 62 62 62 62 62 63 63 64 64 65 65 66 66 67 67 68 68 68 68 67 67 66 64 63 62 61 61 60 59 59 59 59 59 60 61 61 62 62
30 31 32 33 34 34 35 36 36 37 37 37 36 36 36 36 36 36 37 38 39 39 40 41 42 43 43 44 44 45 47 48 50 51 53 55 58 60 62 64 65 66 66 65 63 62 61 61 61 61 61 62 62 62 63 63 64 64 64 64 64 64 64 65 65 65 65 65 66 66 66 66 65 64 63 63 62 61 61 61 62 62 62 61 62 62 62
26 27 28 29 30 31 32 32 33 34 35 35 36 37 38 39 40 41 42 43 44 44 45 46 47 48 49 49 50 51 53 53 55 56 58 59 61 62 62 62 62 61 60 59 59 59 59 60 60 60 61 62 62 63 63 64 64 64 64 65 65 64 64 64 64 65 65 65 64 64 64 65 64 63 62 61 61 60 59 60 61 61 61 60 60 59 60
21 22 23 24 25 26 27 28 28 29 30 31 31 33 34 36 37 39 40 42 44 45 46 47 48 49 50 50 51 52 53 53 53 54 54 55 55 55 55 55 55 55 55 55 56 56 56 57 57 57 58 58 59 59 59 60 60 61 61 62 62 63 63 64 64 64 65 65 65 65 64 64 63 63 61 59 58 57 56 56 56 56 55 55 56 56 57
17 18 19 20 20 22 22 23 24 25 26 26 27 28 30 31 32 33 35 36 37 38 39 40 41 41 42 43 44 45 45 46 46 47 48 48 49 50 50 50 50 50 49 49 48 48 47 47 46 45 45 45 46 46 45 46 47 47 49 50 52 53 55 57 58 60 61 62 63 64 65 64 63 62 61 59 57 56 55 53 51 48 46 45 46 48 49
16 16 17 18 19 20 21 21 22 23 24 25 26 27 28 29 30 31 32 33 34 35 36 36 36 37 38 39 40 40 41 42 42 43 43 43 43 43 42 42 40 39 38 36 35 34 33 33 32 32 33 34 35 36 37 38 38 39 39 40 41 42 44 46 48 51 53 54 56 58 60 61 61 61 60 58 57 55 54 53 51 47 44 41 40 40 42
17 17 17 18 18 19 20 20 21 22 23 24 25 26 27 28 29 30 30 31 32 32 33 33 34 34 35 36 36 36 37 37 37 36 35 34 33 32 31 30 29 28 27 26 26 26 26 26 27 27 28 29 29 30 31 32 34 34 35 36 37 37 38 39 41 42 44 46 48 50 53 55 56 56 56 55 55 54 53 53 52 51 50 49 48 47 47
17 17 17 17 17 18 18 19 19 20 21 22 23 24 25 26 27 27 28 29 29 30 31 31 32 31 31 31 31 30 30 29 28 27 25 24 23 21 20 20 20 20 21 22 23 23 23 22 22 22 22 22 23 24 25 26 27 28 29 31 31 32 34 36 38 38 39 40 41 42 45 47 48 48 49 50 51 50 49 48 47 48 48 49 50 51 53
16 16 16 16 16 16 17 17 18 19 20 20 21 22 23 24 25 26 27 27 28 28 28 28 27 26 25 24 23 23 22 21 20 19 18 16 14 13 14 16 17 17 18 19 19 19 18 17 17 18 19 20 21 21 21 21 21 22 24 25 27 28 29 31 33 35 37 37 38 38 38 40 41 41 42 43 44 45 44 42 42 42 41 42 43 46 50
15 15 15 15 15 16 16 17 18 18 19 19 20 21 22 23 24 25 26 26 26 25 24 22 20 19 18 17 17 16 15 13 13 12 11 9 9 9 11 12 12 13 13 14 14 14 13 14 14 16 18 20 18 16 15 16 18 20 21 23 25 27 28 29 31 32 33 35 36 36 35 35 35 35 35 35 37 38 39 39 40 41 41 42 43 44 45
15 15 15 15 15 16 16 17 17 18 19 19 20 21 22 23 23 23 23 23 21 20 18 16 14 13 13 13 11 10 8 7 6 6 6 7 8 9 9 9 9 9 10 10 11 12 13 13 14 16 18 18 15 14 15 17 19 21 24 26 28 30 31 31 32 32 33 32 33 34 35 34 31 30 30 30 31 32 33 35 37 39 41 43 44 44 41
16 15 15 15 16 16 17 17 17 18 18 19 20 21 21 22 21 21 20 18 16 15 13 12 11 11 10 8 6 5 4 4 4 5 6 8 10 11 11 12 12 12 12 12 12 12 13 13 13 15 17 15 12 12 14 17 20 24 27 30 32 32 32 30 29 30 32 32 31 31 32 32 30 27 26 27 27 28 28 30 33 36 39 41 41 40 36
15 15 15 16 16 17 17 17 17 18 18 19 20 20 20 20 19 17 15 13 12 11 11 10 10 9 8 6 5 4 3 4 5 5 6 8 9 10 11 13 13 13 13 13 13 12 12 12 11 13 14 11 11 13 15 19 23 27 29 31 31 28 26 23 21 21 25 28 29 28 29 30 29 27 26 25 26 26 26 27 29 32 34 37 37 34 31
15 15 16 16 17 17 17 16 17 17 18 18 19 19 19 18 16 14 11 11 11 11 11 10 9 9 9 8 7 6 2 3 4 3 3 7 9 10 10 12 13 14 14 13 12 11 10 9 9 12 12 10 10 13 16 20 24 26 29 30 28 23 17 15 14 14 16 19 21 23 24 26 27 28 28 27 26 26 25 24 24 25 27 30 30 29 29
15 15 16 16 17 17 16 16 17 17 17 18 18 18 17 15 13 11 10 10 11 11 11 10 10 10 10 9 8 6 4 3 3 3 2 4 7 9 11 12 12 14 15 14 11 9 8 8 9 11 11 10 11 13 15 19 22 25 28 30 27 19 13 10 8 8 10 13 15 17 19 22 25 27 28 28 26 24 23 22 20 21 22 23 24 25 28
15 15 16 16 16 16 16 16 16 17 17 17 17 16 14 13 11 10 10 10 11 10 10 10 11 11 11 9 8 7 7 6 5 3 2 2 4 7 10 12 12 13 14 15 14 13 12 11 10 10 10 11 12 13 14 17 19 23 27 30 27 20 13 9 7 5 2 2 6 11 15 18 21 23 25 25 24 22 21 19 17 19 22 27 27 26 28
15 15 16 16 16 16 16 16 16 16 16 16 15 14 12 11 11 11 11 11 10 10 10 11 12 13 12 10 9 9 9 8 6 3 2 2 3 5 7 10 11 12 13 14 16 17 17 16 13 10 9 10 12 13 14 15 17 20 25 28 28 25 20 14 10 8 8 7 6 7 9 11 13 16 18 20 21 20 18 17 18 21 27 31 29 27 28
15 15 16 16 16 16 16 16 16 16 15 15 14 12 11 11 11 12 11 11 10 11 11 12 14 15 13 11 11 10 10 9 6 4 4 4 4 5 7 9 11 11 11 12 14 16 17 18 16 14 11 10 11 13 13 14 15 18 22 24 25 24 24 22 18 15 14 12 10 7 6 6 9 11 13 15 17 17 16 17 20 24 28 28 27 27 27
15 15 16 16 16 16 15 15 15 15 15 14 13 12 11 11 12 12 12 11 11 11 11 12 14 15 14 13 13 13 12 10 7 6 6 6 6 7 8 9 10 10 10 10 11 13 14 15 16 17 15 14 13 12 13 14 15 17 19 21 22 21 20 19 19 19 18 18 17 14 11 7 5 8 12 14 15 15 16 19 23 25 26 26 27 26 24
16 16 16 16 16 15 15 15 15 15 14 13 12 11 12 12 13 13 13 12 11 11 11 11 14 16 16 16 16 16 14 13 11 9 8 7 7 8 9 9 9 10 9 9 9 10 11 12 13 15 16 17 16 15 14 14 15 16 17 18 19 19 18 18 17 17 18 18 17 16 15 13 11 8 8 11 13 16 19 23 25 24 24 24 22 20 18
17 16 16 16 16 15 15 15 15 15 14 13 12 12 12 13 13 14 14 13 12 10 10 10 12 15 17 17 18 17 15 13 12 11 8 6 7 9 9 8 8 8 8 7 7 7 9 10 11 13 14 16 17 17 16 15 15 15 15 16 16 17 17 16 16 16 16 17 17 17 15 13 12 12 12 12 15 19 23 25 24 21 17 16 16 16 18
17 16 16 16 16 15 15 15 15 15 14 13 12 12 12 13 14 14 15 14 12 11 10 9 10 13 15 17 18 18 16 13 10 8 6 6 7 9 8 7 7 6 6 6 6 7 8 9 10 11 12 14 15 16 17 17 17 16 15 15 14 14 14 14 13 13 13 13 14 15 15 14 13 13 14 15 18 22 23 21 18 14 11 11 12 14 15
17 17 16 16 16 16 15 15 15 15 14 14 13 13 13 13 14 14 14 14 13 12 11 10 10 12 13 15 16 17 16 14 11 9 8 8 9 8 7 6 5 5 5 4 5 7 8 9 10 10 11 12 13 14 15 17 18 18 17 16 15 13 12 12 12 11 11 11 10 11 12 12 12 12 14 16 18 20 18 15 14 12 12 13 13 13 14
17 17 16 16 16 16 15 15 15 15 15 14 14 13 13 13 14 14 14 14 13 12 11 11 11 12 13 14 15 15 15 14 12 11 9 9 8 8 6 5 5 5 4 3 3 5 6 7 8 9 10 11 12 12 14 15 16 17 18 18 17 16 15 13 12 11 10 10 9 9 8 8 8 8 9 11 13 13 12 11 11 11 11 12 12 12 12
16 16 16 16 16 16 16 16 15 15 15 15 15 15 14 14 14 14 14 14 13 12 11 10 9 10 11 12 12 13 12 12 11 10 9 8 8 8 7 7 7 6 5 3 3 4 5 6 6 8 9 9 10 11 12 13 14 15 16 16 17 17 17 17 16 14 12 11 9 8 6 6 5 5 5 5 6 7 6 5 5 5 7 9 10 11 11
17 16 16 16 16 16 16 16 16 15 15 16 16 16 16 16 15 15 15 14 14 12 11 9 9 9 10 10 10 10 10 10 10 9 9 9 9 9 9 9 9 7 6 5 4 4 5 5 6 6 7 8 9 10 11 12 12 13 14 14 15 15 16 16 16 17 16 15 13 10 7 5 4 3 2 2 2 3 3 3 4 5 6 8 10 11 13
18 16 16 16 16 16 16 16 16 16 16 17 17 18 18 18 17 16 16 15 15 14 12 10 10 10 10 11 11 11 11 11 11 11 12 12 12 11 11 11 10 9 7 6 5 5 5 5 6 6 7 8 8 9 10 11 12 12 13 13 13 13 14 14 15 15 15 15 15 14 12 10 7 4 2 2 4 6 7 8 8 9 9 9 11 13 14
19 18 17 17 16 16 16 16 17 16 17 17 19 19 19 19 19 18 17 17 16 16 14 13 12 11 12 13 14 14 14 14 15 15 15 15 14 13 12 12 11 10 8 7 6 6 6 6 6 6 6 7 8 8 9 10 10 11 12 12 12 12 12 12 12 12 13 13 13 13 13 13 11 9 7 4 2 3 5 8 9 10 11 12 13 15 16
21 20 18 17 16 16 16 17 17 17 17 18 19 20 20 20 20 20 20 19 18 18 17 16 15 13 14 15 16 17 17 17 17 18 18 17 17 16 14 13 12 11 10 9 8 8 7 7 7 6 6 7 7 8 8 9 9 10 10 11 12 12 12 12 12 11 10 10 10 10 10 10 10 10 9 8 7 4 2 1 4 6 9 11 13 15 17
22 22 21 19 17 17 17 17 18 19 19 19 19 20 21 21 22 22 22 21 21 20 19 19 18 17 16 17 18 19 19 19 19 19 19 19 19 18 17 15 14 12 11 11 10 9 8 7 7 7 7 7 7 8 8 9 9 10 10 10 10 11 11 11 12 11 11 10 9 8 8 7 7 7 7 6 5 5 4 2 0 2 5 8 11 13 16
22 22 22 21 20 18 17 17 19 20 20 20 20 20 21 22 23 24 24 24 23 22 22 21 21 20 19 19 20 20 21 21 21 21 21 20 20 19 18 17 16 15 14 13 12 10 9 8 8 8 7 7 7 7 8 9 10 10 11 11 11 11 11 11 11 11 11 11 10 9 8 7 7 6 6 5 4 3 2 2 2 3 5 7 10 12 15
21 22 22 22 21 20 18 17 18 20 20 20 20 20 21 22 25 26 26 25 25 25 24 24 23 23 22 22 22 22 22 22 22 22 22 21 21 20 20 19 18 17 17 16 14 13 11 10 9 9 8 7 7 7 7 7 8 9 10 11 12 12 12 12 12 12 11 11 11 10 10 9 8 8 8 8 7 7 6 6 6 6 7 9 10 12 14
20 21 21 21 21 21 20 19 19 19 20 21 21 21 21 23 25 26 27 27 27 27 27 27 26 26 25 25 25 24 24 24 24 23 23 23 22 22 22 21 21 20 19 18 17 15 14 14 13 11 10 9 8 8 7 7 8 8 9 10 11 12 13 13 13 14 13 13 12 12 11 11 10 10 9 10 10 10 11 11 11 11 12 12 13 15 16
Wind_Direction
234 233 235 237 237 236 236 236 237 237 237 238 240 240 241 241 242 244 246 248 248 247 244 242 243 245 248 251 250 247 242 242 244 245 246 248 251 254 257 260 263 264 261 256 252 252 253 254 255 254 253 252 253 253 255 257 260 263 265 266 267 268 268 269 270 271 273 274 274 275 274 273 272 272 272 271 271 271 271 269 265 263 262 258 251 250 256
239 236 236 237 238 238 239 238 238 238 237 237 237 238 238 240 241 243 246 247 248 247 245 242 241 242 244 247 249 249 248 247 249 250 251 252 254 257 260 262 264 263 261 259 259 258 258 257 256 255 256 256 257 257 258 259 260 262 264 266 267 268 268 269 270 270 271 271 272 272 272 272 272 272 272 271 269 267 266 266 263 258 256 253 248 248 254
246 243 241 241 240 240 241 241 241 242 242 241 239 238 238 239 241 244 246 247 248 248 247 244 241 241 243 246 248 250 252 254 256 257 255 255 256 259 262 264 264 264 263 263 264 265 265 264 262 262 262 262 262 262 262 263 263 263 264 265 266 267 268 268 269 270 270 270 271 271 270 270 270 270 270 270 269 267 264 263 259 254 252 251 249 250 253
253 249 248 247 247 246 246 246 245 244 244 241 239 238 238 238 239 242 245 247 247 246 245 243 241 240 242 245 248 250 253 256 258 259 258 258 258 259 261 263 263 263 263 264 265 265 266 266 266 266 266 266 267 267 267 267 267 267 267 267 267 267 268 268 269 270 270 271 271 270 270 270 270 269 269 267 266 265 263 260 257 254 251 250 249 251 254
258 255 250 248 248 248 249 251 251 249 246 243 240 239 240 240 239 241 243 246 247 244 242 240 239 240 241 244 248 250 252 255 258 260 261 260 261 261 261 262 262 262 263 263 263 264 264 266 268 269 269 269 270 270 270 270 270 270 270 270 270 270 269 269 269 269 269 270 269 269 268 269 269 268 268 267 265 264 262 258 255 253 252 253 253 255 258
257 255 252 248 247 247 248 250 252 252 249 246 244 243 243 243 243 242 243 244 245 243 239 237 236 238 241 244 247 250 252 254 255 257 258 259 260 262 263 263 264 264 264 264 264 264 265 268 270 270 270 270 271 271 271 271 270 270 270 270 271 271 271 269 268 270 272 271 269 268 268 268 268 267 267 267 266 266 263 258 254 252 253 256 257 258 261
255 252 251 251 250 250 250 250 250 250 250 249 248 247 245 245 244 243 242 243 242 240 239 237 238 240 243 247 251 253 254 255 254 255 257 258 259 261 263 263 264 265 265 266 266 267 268 270 270 271 271 272 271 271 269 268 267 267 267 268 270 271 270 269 270 273 274 272 269 268 268 268 268 266 265 263 262 260 257 255 254 254 254 255 257 260 262
260 255 253 253 253 252 252 251 252 251 251 251 252 251 251 250 250 249 248 247 245 245 245 245 246 248 249 250 252 254 254 253 253 255 258 260 262 264 265 264 264 264 265 266 266 267 268 269 270 270 271 270 268 266 264 265 265 265 265 266 266 267 267 268 270 272 271 269 268 268 267 265 265 264 263 262 259 257 254 253 254 255 255 256 258 261 262
266 264 261 258 256 254 252 252 253 253 253 253 253 254 255 257 257 257 257 256 255 253 252 251 251 250 249 248 248 249 250 252 253 256 257 257 259 261 262 263 264 265 265 265 266 267 267 268 268 268 267 266 264 262 262 264 265 264 264 264 264 264 265 266 267 267 267 267 268 266 264 262 261 260 259 259 258 258 257 256 256 256 257 257 258 259 260
268 267 265 263 260 257 255 254 254 255 256 257 258 259 261 263 263 263 262 261 261 259 258 255 253 251 250 249 248 249 251 252 254 256 256 256 256 256 258 260 263 264 264 265 265 266 266 267 267 266 265 264 263 262 263 264 264 264 263 263 263 264 265 266 265 264 265 266 265 263 259 257 258 257 256 256 256 256 257 258 257 256 256 257 257 257 256
260 260 258 257 257 255 254 255 255 255 256 257 259 261 264 266 267 266 265 264 263 261 260 258 256 254 253 251 251 252 252 253 254 255 256 256 257 257 258 260 262 263 263 264 265 265 266 266 266 266 265 264 263 263 263 263 263 263 262 262 263 264 265 266 265 265 266 265 263 260 257 255 256 257 258 259 259 257 256 255 253 252 253 256 257 257 257
251 255 255 253 253 252 251 251 252 253 254 255 257 260 263 265 265 265 264 263 262 261 260 259 257 256 254 253 253 253 253 253 254 255 255 256 257 257 258 259 260 261 262 263 264 265 266 266 266 266 266 266 266 265 265 265 265 264 264 264 265 265 265 265 265 265 265 263 261 258 256 255 256 258 260 260 261 260 258 256 254 254 255 257 258 259 260
253 256 257 256 256 256 256 255 255 256 256 256 257 260 261 261 260 260 260 261 260 260 260 259 258 257 256 256 256 255 255 256 256 256 257 257 258 258 259 260 261 261 262 263 264 264 265 265 266 267 267 268 268 268 268 268 267 267 267 267 266 266 266 266 265 265 264 263 261 259 257 256 257 259 261 261 260 259 259 258 257 257 258 259 260 260 261
254 255 256 257 257 257 258 258 259 260 259 259 259 260 259 257 257 257 257 258 258 258 258 258 258 258 258 258 258 258 258 258 258 258 259 259 259 259 260 261 261 262 262 263 263 264 265 265 265 266 266 267 267 267 268 268 268 268 268 268 268 268 268 267 267 266 265 264 263 261 259 258 258 258 259 260 258 258 258 258 258 259 259 259 259 259 259
253 254 256 257 258 258 259 259 260 261 261 262 262 261 260 259 258 257 257 258 258 258 258 259 259 259 260 260 260 260 260 260 260 260 260 260 260 261 261 261 262 262 263 263 264 265 266 266 266 266 266 266 266 266 266 266 267 267 267 268 268 268 268 268 268 268 267 266 265 263 261 260 259 259 259 258 257 257 257 257 257 257 256 255 255 255 254
251 253 254 256 257 258 259 260 260 261 262 263 263 263 262 262 262 261 261 261 261 261 261 261 261 261 261 261 261 261 262 262 261 261 261 262 262 263 263 263 263 264 264 265 266 267 268 268 269 268 268 268 268 268 267 267 267 266 266 266 266 266 267 267 267 268 267 267 266 265 263 262 260 259 259 257 254 253 253 253 253 252 251 251 251 250 249
253 254 255 256 257 257 258 259 259 260 261 262 262 263 263 263 263 263 263 263 263 263 262 262 262 262 262 262 262 262 263 263 262 262 262 262 263 264 264 265 265 266 266 267 268 270 271 271 272 272 272 271 271 271 271 270 269 269 268 267 267 266 266 266 266 266 266 266 265 265 264 263 262 261 260 259 256 252 250 249 250 249 249 250 251 249 248
256 257 257 258 258 258 259 259 259 260 260 260 261 261 261 262 263 263 263 263 262 262 262 262 261 261 261 262 262 263 263 264 264 264 264 265 266 266 267 268 269 270 271 272 272 273 274 275 275 274 274 274 273 272 272 271 270 270 269 268 268 267 266 266 265 265 264 264 263 263 263 262 262 262 261 260 258 256 253 251 251 251 252 254 256 255 254
256 257 258 259 259 260 260 261 261 261 261 262 262 263 263 263 264 264 264 265 265 266 266 266 266 267 267 267 268 269 269 270 271 271 271 272 272 273 274 274 275 275 276 277 278 279 278 278 277 276 275 274 273 272 271 270 269 269 269 268 268 267 267 266 265 264 264 263 262 261 260 260 259 259 259 259 259 258 257 255 254 254 254 256 259 259 260
255 256 256 257 258 259 259 259 259 259 258 258 259 260 261 262 262 263 263 264 265 266 266 267 267 268 268 269 270 270 270 271 270 270 270 270 271 273 275 276 277 278 279 280 280 280 279 278 277 276 275 274 273 272 271 270 269 268 268 268 267 267 267 266 266 265 264 263 262 261 260 259 258 257 256 257 257 257 257 256 256 256 256 256 257 259 261
256 256 257 258 258 258 258 259 259 258 257 256 255 255 255 255 254 254 255 256 256 257 257 258 258 259 260 261 261 262 262 263 263 264 265 267 268 270 273 275 276 277 278 278 278 278 277 277 276 276 275 274 274 273 272 271 271 270 269 268 267 266 266 265 265 264 264 263 262 262 261 260 259 257 256 255 255 255 255 255 255 256 256 257 257 258 260
257 257 258 258 259 260 260 260 261 261 261 261 260 259 258 257 256 256 255 256 256 256 256 257 258 259 260 260 261 261 262 263 264 265 267 268 270 272 273 274 275 276 276 276 276 276 276 276 275 275 274 273 273 272 272 271 271 270 269 268 268 267 266 265 264 263 262 262 261 260 260 260 259 258 256 255 254 253 253 253 254 255 256 257 258 259 260
261 262 262 262 263 263 263 263 263 263 263 263 263 262 262 261 260 260 260 260 260 260 261 261 262 263 264 264 265 265 266 267 268 269 270 271 271 272 273 274 275 275 275 276 276 275 275 275 275 274 274 274 274 273 273 272 272 271 270 269 268 267 266 265 264 263 262 261 260 259 259 258 258 258 257 256 255 253 251 252 254 256 256 256 257 258 259
268 267 266 266 265 264 265 265 264 264 265 265 265 264 264 264 264 264 264 264 265 265 265 266 267 267 268 268 268 269 270 270 271 271 272 273 274 274 275 276 276 276 277 277 276 276 277 277 277 277 277 277 277 277 276 275 274 273 272 271 269 268 266 265 264 263 261 260 259 259 258 257 257 257 256 255 254 253 252 251 251 251 251 254 257 259 259
267 265 264 263 263 263 263 264 264 265 265 265 265 266 266 266 266 267 267 268 268 269 269 269 270 270 271 271 271 272 273 274 274 275 277 278 278 279 279 279 279 279 279 278 278 278 278 279 279 280 281 281 280 280 278 277 276 275 274 272 271 269 267 265 264 262 261 259 257 257 256 255 254 254 254 253 252 251 251 251 250 246 243 244 247 251 254
268 267 266 266 265 266 266 266 267 267 267 267 267 267 268 268 269 269 270 271 271 272 272 273 273 273 274 275 276 277 278 279 280 282 283 283 283 282 282 281 280 279 278 277 277 278 279 281 284 286 287 287 287 286 284 282 280 278 276 274 273 271 269 267 265 263 261 259 256 255 254 253 253 252 251 251 250 249 248 249 248 246 243 240 239 241 245
273 272 272 271 271 271 271 271 271 270 270 270 271 271 272 273 273 274 275 275 275 276 277 277 277 278 278 279 280 281 282 284 286 287 288 287 286 284 283 282 280 278 277 277 278 280 283 286 290 293 294 295 296 295 293 291 288 285 282 279 276 273 271 268 266 263 260 258 256 254 252 252 251 250 249 247 247 246 246 245 245 246 245 244 242 243 245
276 276 276 276 277 276 276 276 276 276 276 276 277 278 279 279 280 280 281 281 281 280 280 279 279 280 280 280 282 284 287 290 292 293 293 292 291 292 292 290 288 286 285 285 285 286 289 294 298 298 300 302 301 299 298 297 297 294 291 286 283 279 275 270 267 264 260 256 254 252 251 250 248 247 246 245 244 243 241 237 236 239 241 242 241 242 244
281 281 280 280 280 281 281 281 282 282 283 283 284 284 284 284 285 285 284 283 282 280 278 277 277 277 277 280 284 288 293 296 298 298 297 298 303 305 301 296 295 294 294 294 295 294 296 301 303 305 309 312 311 309 311 315 315 312 307 301 295 288 281 274 269 264 259 255 251 248 248 247 246 244 243 242 241 240 238 233 229 230 233 236 237 239 243
283 283 283 282 282 282 283 284 285 286 287 287 287 287 287 287 287 285 284 282 278 274 272 271 270 271 275 281 285 290 297 306 313 322 332 338 338 334 327 319 313 309 306 302 299 298 302 306 310 317 322 322 319 320 325 328 328 325 320 315 308 300 291 281 271 263 258 253 248 244 242 242 241 240 238 237 237 237 236 232 228 227 230 234 236 239 244
283 283 284 283 282 283 284 286 287 288 289 289 289 289 289 289 288 286 282 276 268 265 266 265 264 266 268 271 275 285 313 346 9 26 25 12 359 352 349 343 337 331 323 313 305 305 310 313 320 328 331 328 326 331 336 339 339 334 328 321 314 305 296 288 276 264 256 251 246 241 238 236 235 233 232 233 234 233 233 231 228 227 230 232 235 239 241
283 283 282 281 281 283 285 287 288 289 289 290 290 291 291 291 290 285 276 266 260 261 261 259 257 255 248 246 263 285 333 22 32 40 40 26 10 0 357 353 346 338 327 317 313 315 316 318 328 336 336 334 337 341 344 346 345 340 334 330 323 313 305 298 287 270 257 249 244 239 232 228 227 226 224 226 228 229 230 232 231 230 231 232 235 238 232
283 281 280 280 280 282 284 286 287 289 290 290 292 293 293 293 289 278 264 255 256 259 257 254 248 237 226 231 255 269 285 16 14 6 33 35 24 13 7 3 358 350 339 329 324 322 320 325 340 344 338 335 339 342 345 349 348 346 346 343 337 328 321 315 303 282 261 246 239 233 225 220 218 219 219 220 222 224 227 230 232 234 234 232 231 227 217
282 280 278 278 278 281 283 285 286 288 290 291 293 294 293 291 281 264 250 251 257 257 254 248 239 229 224 230 244 254 260 293 312 299 330 27 24 17 14 10 6 2 355 348 344 344 344 349 353 349 341 337 336 338 343 347 349 354 359 359 353 344 337 335 324 296 266 245 230 219 211 207 209 215 218 218 217 221 225 226 230 234 228 216 209 204 200
281 279 278 277 277 278 281 282 284 287 289 290 292 292 291 284 270 250 244 252 257 255 251 243 231 223 224 229 236 243 250 257 259 255 268 342 2 10 13 11 7 6 4 2 3 9 11 7 358 349 346 348 349 347 347 348 353 2 10 13 12 9 4 360 6 21 44 184 189 188 192 197 205 212 216 215 214 217 220 221 229 231 212 192 185 191 196
281 279 277 275 274 275 277 279 281 285 286 288 290 289 284 275 259 244 244 252 256 254 251 240 223 214 217 226 233 234 233 233 233 234 250 291 323 347 3 6 4 3 4 5 8 14 19 16 7 354 349 354 359 359 356 353 358 9 18 22 25 31 34 34 37 53 73 89 115 149 173 190 202 209 212 212 212 215 218 221 224 215 198 187 187 195 201
281 278 275 273 272 272 274 276 279 282 284 285 286 283 274 263 251 242 244 251 253 252 249 237 222 215 218 227 232 230 227 227 234 255 278 297 318 333 344 353 356 356 355 359 5 12 19 19 15 9 5 5 6 7 7 5 7 15 23 27 32 37 43 48 53 61 71 78 88 107 138 179 201 208 211 212 212 215 219 217 208 198 192 190 191 190 188
280 277 275 272 270 270 272 274 277 279 281 281 279 275 265 255 245 241 245 250 249 247 245 235 223 219 222 227 228 229 230 235 247 267 283 296 316 329 334 338 343 345 345 350 0 10 16 17 16 15 16 16 14 13 13 15 18 22 26 31 35 39 44 48 54 61 68 72 75 78 83 99 153 192 205 210 211 209 204 197 191 188 186 185 183 180 182
281 278 276 272 269 268 269 271 274 276 276 275 272 267 259 251 244 241 245 248 247 244 242 234 224 222 225 229 232 234 237 240 248 257 268 283 306 323 329 330 333 335 336 341 354 5 11 13 14 15 18 22 22 20 16 16 22 29 33 36 39 44 49 54 59 63 67 69 68 68 69 71 79 104 148 173 180 180 180 180 180 179 177 176 178 183 190
282 280 277 274 270 266 265 267 271 273 272 269 265 259 252 248 244 242 244 247 248 247 244 236 229 227 230 234 240 247 251 248 245 245 250 270 299 316 323 325 325 325 326 334 350 3 9 11 13 16 20 24 27 27 23 19 21 27 32 37 42 47 52 58 63 66 68 68 66 64 66 70 77 86 99 121 144 157 165 170 170 167 167 172 180 186 189
284 282 279 276 272 267 264 265 267 269 268 264 258 253 248 246 243 242 243 245 248 248 247 243 238 237 237 239 245 254 261 261 255 251 258 276 294 306 316 321 317 312 316 330 351 5 11 13 14 18 23 27 30 32 32 31 30 29 30 34 40 47 52 54 56 58 60 61 63 64 66 71 79 88 97 116 136 149 156 161 163 161 163 170 175 178 183
285 282 280 276 272 267 264 263 264 265 263 258 252 247 244 243 243 242 242 243 245 245 246 246 246 246 247 247 249 254 261 267 269 268 269 275 283 292 302 306 299 295 306 330 352 4 9 10 12 16 23 28 31 33 35 36 37 37 37 37 39 44 49 52 54 54 54 55 58 65 70 73 78 87 101 120 138 149 156 162 167 169 172 174 176 180 188
285 281 279 276 272 267 264 262 262 262 259 254 249 244 241 240 241 243 242 242 241 239 237 238 241 245 247 248 250 253 256 261 263 263 263 266 272 275 276 273 271 273 284 309 343 357 359 0 4 11 17 22 27 32 36 38 39 40 40 41 42 44 46 48 49 51 53 55 58 65 76 83 90 99 112 126 139 149 156 163 168 174 180 185 188 193 197
283 279 276 274 271 267 263 260 259 259 257 250 244 240 239 238 240 242 242 239 236 233 229 229 234 239 241 240 241 243 244 246 247 250 251 251 251 250 250 249 249 253 262 278 307 328 337 344 352 1 7 10 14 21 27 32 36 39 40 41 41 43 45 47 49 51 53 56 58 63 72 81 89 102 120 134 142 148 152 159 170 186 196 201 204 205 201
282 278 275 272 270 266 262 258 256 255 253 247 241 238 237 236 237 240 241 238 232 226 222 222 227 234 236 234 231 229 227 226 226 226 227 229 232 235 237 238 240 243 249 260 276 296 313 326 337 344 351 358 3 8 12 17 23 28 32 35 38 40 41 43 45 48 52 56 59 64 69 75 81 96 127 163 179 189 205 225 238 234 219 210 208 207 202
281 278 274 271 269 265 261 256 253 251 249 246 241 237 235 234 234 236 239 237 231 223 218 218 223 229 231 231 228 223 220 217 216 213 213 217 222 226 229 233 237 240 243 250 263 279 294 308 320 331 339 346 351 356 1 5 8 10 14 19 24 29 33 36 38 40 44 49 54 58 61 65 70 82 130 201 222 228 234 240 241 237 227 218 213 210 209
282 280 275 271 268 265 261 255 251 248 247 246 243 239 235 234 233 234 235 235 232 226 219 216 219 225 229 229 227 224 222 220 217 215 215 217 219 221 224 230 234 237 241 248 260 270 278 288 301 315 328 337 343 348 353 356 359 1 2 4 6 10 15 20 25 29 33 37 41 46 51 55 58 61 65 76 131 211 227 232 231 226 221 217 217 219 220
282 281 277 271 267 263 260 256 252 248 246 245 244 240 236 233 232 232 233 233 232 229 223 218 217 222 227 229 228 227 226 225 222 219 219 220 221 222 223 227 231 235 239 246 253 260 267 276 286 297 310 322 333 341 346 349 352 355 357 358 359 359 0 2 5 10 15 20 24 27 32 38 44 48 51 54 55 57 59 216 222 218 214 212 213 216 217
280 280 279 276 270 263 260 258 255 251 247 245 244 242 238 234 232 232 232 232 231 230 228 224 220 220 224 229 230 230 229 228 227 225 224 223 224 225 226 228 231 235 241 247 250 255 263 272 282 292 302 313 324 333 339 344 347 350 353 355 356 356 356 355 355 356 357 359 1 3 5 8 13 21 28 33 37 38 36 31 5 215 211 209 209 210 209
278 279 279 277 274 268 262 258 256 253 250 247 245 243 240 235 232 231 231 232 231 231 230 227 224 222 223 227 231 233 232 231 230 230 229 228 228 229 230 231 234 237 242 245 248 251 257 266 275 284 293 303 315 326 334 339 342 344 346 347 349 350 351 351 351 351 350 349 348 346 342 338 334 333 333 337 341 342 337 318 276 240 223 215 211 210 209
278 278 277 276 274 271 266 260 256 254 252 249 247 245 241 237 233 232 232 232 232 232 231 230 228 226 225 226 230 233 235 234 234 233 233 234 234 235 236 237 239 240 242 244 246 248 252 257 263 271 279 288 298 310 320 328 335 339 342 343 344 345 346 346 346 345 344 342 340 338 336 331 324 315 306 299 294 289 284 278 270 260 248 237 228 223 219
275 274 274 273 272 270 268 263 258 255 253 251 249 246 242 238 235 234 233 231 231 232 232 231 230 230 229 229 230 233 235 236 237 237 238 239 241 243 245 246 247 247 246 247 248 250 253 256 260 263 268 273 280 288 297 307 315 322 329 333 336 338 340 340 341 341 340 339 336 334 331 327 323 317 309 299 290 282 276 271 266 263 259 254 249 244 240
Height
5660 5662 5663 5664 5666 5667 5668 5669 5671 5673 5675 5676 5677 5679 5681 5682 5684 5685 5686 5688 5690 5691 5692 5694 5695 5696 5697 5698 5699 5700 5701 5702 5702 5703 5704 5704 5705 5705 5705 5706 5706 5706 5707 5707 5708 5709 5710 5711 5712 5713 5713 5714 5715 5716 5717 5717 5718 5718 5718 5719 5719 5720 5720 5720 5720 5721 5721 5721 5721 5722 5723 5724 5724 5724 5725 5726 5726 5726 5726 5726 5727 5727 5726 5726 5727 5727 5727
5656 5657 5659 5660 5661 5662 5664 5665 5666 5668 5670 5672 5673 5675 5676 5678 5679 5681 5682 5684 5685 5687 5689 5690 5691 5692 5693 5694 5695 5696 5697 5698 5699 5700 5700 5701 5701 5702 5702 5702 5703 5703 5703 5704 5704 5705 5707 5707 5708 5709 5709 5710 5711 5711 5712 5713 5713 5714 5714 5714 5714 5715 5715 5715 5715 5715 5716 5716 5716 5717 5717 5718 5719 5719 5720 5720 5721 5721 5721 5721 5722 5722 5722 5722 5722 5723 5723
5653 5654 5655 5656 5657 5658 5660 5661 5663 5664 5666 5667 5668 5670 5672 5674 5675 5676 5678 5680 5681 5683 5685 5686 5687 5688 5689 5690 5691 5692 5693 5694 5695 5696 5697 5697 5698 5698 5699 5699 5699 5700 5700 5701 5701 5702 5702 5703 5704 5704 5705 5705 5706 5706 5707 5708 5708 5709 5709 5709 5709 5710 5710 5710 5710 5710 5710 5710 5710 5711 5712 5713 5713 5714 5714 5714 5715 5715 5716 5716 5716 5717 5717 5717 5717 5718 5718
5650 5651 5652 5653 5654 5655 5656 5658 5659 5661 5661 5662 5664 5665 5667 5669 5671 5672 5674 5675 5677 5679 5680 5682 5683 5684 5685 5686 5687 5688 5689 5690 5691 5691 5692 5693 5693 5694 5694 5695 5695 5696 5696 5696 5697 5697 5697 5697 5698 5698 5699 5699 5700 5700 5701 5702 5702 5703 5703 5704 5704 5704 5704 5704 5704 5704 5704 5704 5704 5705 5705 5706 5707 5707 5708 5708 5709 5710 5710 5711 5711 5712 5712 5712 5712 5713 5713
5646 5648 5648 5649 5650 5651 5653 5654 5656 5657 5658 5659 5660 5662 5663 5665 5666 5668 5669 5671 5672 5674 5675 5677 5678 5679 5680 5682 5683 5683 5684 5685 5686 5687 5687 5688 5688 5689 5690 5690 5691 5691 5691 5691 5692 5692 5692 5692 5692 5692 5693 5693 5693 5693 5694 5695 5695 5696 5696 5697 5697 5698 5698 5698 5698 5698 5698 5698 5698 5698 5698 5699 5700 5700 5701 5702 5703 5703 5704 5705 5705 5706 5707 5707 5707 5707 5707
5642 5643 5644 5645 5646 5648 5649 5651 5652 5653 5655 5656 5657 5659 5659 5661 5662 5663 5664 5666 5667 5668 5670 5671 5672 5673 5675 5676 5678 5678 5679 5680 5681 5682 5682 5683 5683 5683 5684 5685 5685 5685 5685 5686 5686 5686 5686 5686 5686 5686 5687 5687 5687 5687 5687 5688 5688 5688 5688 5689 5689 5690 5691 5691 5691 5691 5691 5691 5691 5692 5692 5692 5693 5694 5695 5696 5698 5699 5699 5699 5699 5701 5702 5702 5701 5701 5701
5638 5639 5640 5641 5643 5645 5646 5648 5649 5650 5651 5652 5653 5654 5655 5656 5658 5659 5660 5661 5662 5663 5664 5666 5667 5668 5669 5671 5672 5673 5674 5675 5676 5676 5677 5677 5678 5678 5678 5679 5679 5679 5679 5680 5680 5680 5680 5680 5680 5680 5680 5681 5681 5681 5680 5680 5681 5681 5681 5681 5682 5683 5684 5684 5685 5685 5685 5685 5685 5685 5685 5685 5686 5687 5688 5690 5693 5694 5694 5693 5693 5694 5695 5695 5694 5695 5695
5633 5634 5636 5638 5639 5641 5642 5644 5645 5646 5647 5648 5649 5650 5652 5653 5654 5655 5656 5657 5658 5659 5660 5661 5662 5663 5665 5667 5667 5668 5668 5668 5670 5671 5672 5672 5672 5672 5672 5672 5672 5672 5673 5673 5673 5673 5673 5673 5673 5673 5674 5674 5674 5674 5673 5673 5674 5674 5675 5675 5676 5677 5678 5677 5677 5678 5678 5679 5679 5679 5678 5678 5679 5680 5681 5683 5685 5686 5687 5686 5686 5687 5688 5688 5688 5689 5689
5628 5630 5632 5633 5635 5636 5638 5639 5640 5641 5642 5643 5645 5646 5647 5648 5649 5650 5651 5652 5653 5655 5655 5656 5657 5658 5660 5661 5661 5662 5662 5662 5663 5665 5666 5666 5666 5666 5666 5665 5665 5665 5665 5666 5666 5666 5666 5666 5666 5667 5667 5667 5667 5667 5667 5667 5668 5668 5668 5669 5670 5671 5672 5671 5672 5672 5672 5673 5673 5673 5672 5672 5672 5673 5674 5675 5676 5677 5678 5679 5679 5680 5681 5681 5682 5683 5683
5623 5624 5626 5627 5629 5632 5634 5635 5636 5637 5638 5638 5639 5640 5641 5643 5644 5645 5646 5647 5648 5649 5650 5651 5652 5653 5653 5654 5655 5656 5656 5656 5657 5657 5658 5658 5659 5659 5659 5658 5658 5658 5658 5658 5658 5658 5658 5658 5659 5659 5660 5660 5660 5660 5660 5661 5661 5661 5662 5663 5663 5664 5665 5665 5666 5666 5667 5667 5667 5667 5666 5666 5666 5667 5668 5668 5669 5671 5672 5672 5672 5673 5674 5674 5675 5676 5677
5619 5620 5621 5622 5624 5627 5629 5630 5631 5632 5633 5634 5635 5635 5636 5638 5639 5639 5640 5641 5642 5643 5644 5645 5646 5646 5647 5648 5649 5649 5650 5650 5650 5651 5651 5651 5652 5652 5652 5652 5651 5651 5651 5651 5651 5651 5651 5651 5651 5652 5652 5653 5653 5653 5653 5653 5654 5654 5655 5656 5656 5657 5658 5658 5658 5659 5660 5660 5661 5661 5661 5660 5660 5661 5662 5662 5663 5665 5665 5666 5666 5667 5667 5668 5669 5670 5671
5617 5617 5617 5618 5620 5622 5624 5625 5626 5627 5628 5629 5630 5630 5632 5634 5634 5634 5635 5636 5636 5637 5638 5639 5639 5640 5640 5641 5642 5642 5643 5643 5644 5644 5644 5644 5645 5645 5645 5645 5645 5644 5644 5644 5644 5644 5644 5644 5644 5644 5645 5645 5645 5645 5645 5645 5645 5646 5647 5647 5648 5649 5649 5650 5650 5651 5651 5652 5653 5654 5654 5654 5654 5654 5655 5656 5657 5658 5659 5659 5660 5660 5661 5662 5663 5663 5664
5613 5613 5613 5614 5616 5618 5619 5620 5621 5622 5622 5623 5625 5626 5628 5629 5629 5629 5629 5630 5630 5631 5632 5632 5633 5633 5634 5635 5635 5635 5636 5636 5636 5637 5637 5637 5637 5637 5638 5638 5637 5637 5637 5637 5636 5636 5636 5636 5636 5636 5637 5637 5637 5637 5637 5636 5635 5636 5637 5637 5638 5639 5639 5640 5641 5641 5642 5643 5644 5645 5646 5646 5647 5647 5648 5649 5650 5651 5651 5652 5652 5653 5654 5655 5656 5656 5657
5607 5607 5608 5609 5611 5613 5614 5615 5615 5616 5616 5617 5619 5621 5622 5622 5622 5623 5624 5624 5624 5625 5625 5626 5626 5627 5627 5628 5628 5629 5629 5629 5629 5629 5629 5629 5629 5629 5629 5629 5629 5629 5629 5628 5628 5628 5627 5628 5628 5628 5629 5629 5628 5628 5628 5626 5626 5626 5627 5627 5628 5629 5629 5630 5631 5632 5633 5633 5634 5635 5636 5637 5638 5639 5640 5641 5642 5643 5643 5644 5645 5646 5647 5647 5648 5649 5650
5601 5602 5602 5604 5605 5607 5609 5609 5609 5610 5610 5611 5613 5614 5615 5615 5616 5617 5617 5618 5618 5619 5619 5619 5620 5620 5620 5621 5621 5622 5622 5621 5621 5621 5621 5621 5621 5621 5621 5621 5621 5621 5620 5620 5620 5619 5619 5619 5619 5619 5619 5620 5620 5619 5619 5618 5617 5618 5618 5618 5619 5619 5619 5620 5621 5621 5623 5624 5625 5626 5627 5628 5629 5630 5631 5632 5633 5634 5635 5636 5637 5638 5639 5640 5640 5641 5642
5595 5596 5596 5598 5600 5601 5602 5602 5603 5603 5604 5605 5606 5607 5608 5608 5609 5610 5610 5611 5611 5612 5612 5612 5613 5613 5613 5613 5614 5614 5614 5614 5613 5613 5613 5613 5613 5613 5613 5612 5612 5613 5612 5612 5612 5611 5610 5609 5609 5609 5609 5609 5610 5610 5609 5608 5608 5609 5609 5610 5610 5610 5610 5611 5611 5612 5613 5614 5615 5616 5617 5618 5620 5621 5622 5623 5625 5626 5627 5628 5629 5630 5632 5632 5633 5633 5634
5589 5590 5591 5592 5594 5595 5595 5596 5597 5597 5598 5599 5600 5600 5601 5601 5602 5603 5603 5604 5604 5605 5605 5605 5605 5605 5606 5606 5606 5606 5606 5606 5606 5605 5605 5605 5605 5605 5605 5605 5604 5604 5604 5604 5604 5603 5602 5601 5600 5599 5598 5598 5599 5599 5599 5598 5598 5598 5599 5599 5600 5600 5601 5601 5602 5602 5603 5604 5605 5606 5607 5609 5610 5612 5613 5615 5616 5618 5619 5620 5621 5622 5624 5625 5625 5626 5627
5583 5584 5584 5586 5587 5588 5589 5590 5591 5591 5592 5593 5593 5594 5594 5595 5596 5596 5596 5597 5597 5598 5598 5598 5598 5598 5599 5599 5599 5599 5599 5598 5598 5598 5598 5598 5598 5597 5597 5597 5596 5596 5596 5596 5596 5595 5594 5592 5591 5590 5588 5587 5588 5588 5587 5586 5586 5586 5587 5588 5588 5589 5590 5591 5591 5592 5593 5594 5595 5596 5598 5599 5600 5602 5603 5605 5607 5609 5610 5611 5612 5613 5615 5616 5616 5617 5618
5578 5578 5579 5580 5581 5582 5583 5584 5585 5585 5586 5586 5587 5588 5588 5589 5589 5590 5590 5590 5590 5590 5591 5591 5591 5591 5592 5592 5592 5592 5592 5591 5590 5590 5590 5589 5589 5588 5588 5588 5588 5587 5587 5586 5586 5585 5584 5582 5580 5579 5578 5577 5576 5576 5576 5575 5574 5574 5574 5575 5576 5577 5577 5578 5579 5581 5582 5583 5584 5586 5587 5589 5591 5592 5593 5595 5597 5599 5601 5602 5603 5604 5605 5607 5607 5607 5608
5573 5573 5574 5575 5576 5577 5578 5579 5579 5580 5581 5581 5582 5582 5583 5583 5584 5584 5584 5584 5585 5585 5585 5585 5585 5585 5585 5586 5586 5585 5584 5584 5583 5583 5583 5582 5581 5580 5580 5579 5579 5578 5578 5577 5575 5574 5573 5571 5570 5568 5567 5566 5565 5565 5565 5564 5564 5564 5564 5564 5565 5565 5566 5566 5567 5568 5569 5571 5572 5574 5576 5578 5580 5582 5584 5585 5587 5589 5591 5593 5594 5595 5596 5597 5598 5599 5600
5568 5569 5569 5570 5571 5572 5573 5574 5574 5575 5576 5577 5577 5578 5579 5579 5579 5579 5580 5580 5580 5580 5580 5581 5580 5580 5580 5581 5581 5580 5579 5578 5578 5577 5576 5575 5574 5573 5572 5571 5571 5570 5568 5567 5566 5564 5563 5561 5560 5558 5557 5556 5555 5554 5553 5553 5553 5553 5554 5554 5554 5555 5555 5555 5556 5556 5557 5558 5560 5561 5563 5565 5568 5570 5573 5575 5578 5580 5582 5583 5585 5585 5587 5588 5590 5591 5592
5564 5565 5566 5566 5567 5568 5568 5569 5570 5570 5571 5572 5572 5573 5574 5574 5574 5574 5574 5574 5575 5575 5575 5575 5575 5575 5575 5575 5575 5574 5573 5572 5572 5571 5570 5569 5568 5566 5565 5564 5562 5561 5559 5558 5556 5555 5553 5551 5550 5548 5547 5545 5544 5544 5543 5542 5542 5542 5542 5542 5543 5544 5544 5544 5545 5545 5545 5546 5548 5549 5551 5553 5555 5558 5561 5564 5567 5571 5572 5573 5575 5576 5578 5580 5581 5582 5583
5561 5562 5562 5563 5563 5564 5564 5565 5565 5566 5566 5567 5567 5567 5568 5568 5568 5568 5568 5568 5568 5568 5568 5568 5568 5568 5568 5568 5567 5566 5566 5565 5565 5564 5563 5562 5560 5559 5557 5556 5554 5552 5551 5549 5548 5546 5544 5542 5541 5539 5537 5536 5535 5534 5534 5533 5532 5532 5531 5531 5532 5532 5532 5532 5533 5533 5534 5535 5536 5538 5540 5542 5543 5546 5549 5553 5556 5559 5562 5565 5566 5568 5570 5571 5572 5573 5574
5559 5559 5560 5560 5560 5560 5560 5561 5561 5561 5562 5562 5562 5562 5562 5562 5562 5562 5562 5562 5562 5562 5562 5562 5562 5561 5561 5561 5560 5559 5559 5558 5557 5556 5555 5554 5553 5551 5549 5548 5546 5544 5542 5541 5539 5537 5536 5534 5533 5531 5530 5528 5527 5526 5525 5524 5523 5522 5521 5521 5521 5521 5521 5521 5521 5521 5522 5523 5524 5525 5528 5531 5533 5535 5539 5543 5546 5548 5551 5556 5559 5560 5563 5565 5566 5567 5568
5557 5557 5557 5557 5557 5557 5557 5557 5558 5558 5558 5558 5558 5557 5557 5557 5557 5557 5556 5556 5556 5556 5556 5556 5556 5555 5554 5554 5553 5553 5552 5551 5550 5549 5548 5547 5545 5543 5541 5539 5538 5537 5535 5534 5532 5531 5530 5528 5527 5526 5524 5523 5522 5520 5519 5517 5516 5515 5514 5513 5512 5512 5511 5511 5510 5510 5510 5511 5512 5513 5515 5518 5522 5524 5528 5532 5535 5538 5542 5546 5550 5553 5557 5560 5562 5561 5561
5553 5554 5554 5554 5554 5554 5554 5554 5554 5554 5554 5554 5554 5553 5553 5553 5552 5552 5552 5552 5551 5551 5550 5550 5550 5549 5548 5547 5547 5546 5545 5544 5543 5542 5541 5540 5538 5536 5534 5533 5532 5531 5530 5529 5528 5526 5525 5524 5523 5522 5520 5519 5517 5515 5513 5511 5510 5508 5507 5506 5505 5504 5504 5503 5502 5501 5501 5501 5502 5503 5505 5507 5511 5514 5518 5521 5525 5529 5532 5536 5541 5545 5548 5551 5553 5554 5554
5550 5550 5551 5551 5551 5551 5551 5551 5551 5551 5550 5550 5550 5549 5549 5549 5548 5548 5547 5547 5546 5546 5545 5544 5544 5543 5543 5542 5541 5540 5540 5539 5538 5537 5536 5534 5533 5531 5530 5529 5528 5527 5526 5525 5524 5523 5522 5521 5520 5518 5516 5515 5512 5510 5508 5506 5504 5503 5501 5500 5499 5498 5497 5495 5494 5494 5494 5494 5495 5495 5496 5498 5501 5505 5508 5512 5515 5519 5524 5528 5532 5535 5538 5542 5545 5547 5547
5547 5547 5547 5547 5547 5548 5547 5547 5547 5547 5546 5546 5546 5545 5545 5544 5544 5543 5543 5542 5541 5541 5540 5539 5539 5538 5538 5537 5537 5536 5536 5535 5534 5533 5532 5531 5530 5528 5527 5526 5525 5524 5523 5522 5521 5520 5519 5518 5517 5515 5513 5511 5509 5507 5505 5503 5501 5499 5497 5495 5493 5492 5490 5489 5487 5487 5487 5487 5488 5489 5490 5492 5494 5497 5500 5504 5507 5511 5516 5521 5525 5528 5531 5534 5536 5538 5539
5544 5544 5544 5544 5544 5544 5544 5544 5543 5543 5543 5542 5542 5541 5541 5540 5540 5539 5538 5537 5537 5536 5536 5535 5535 5535 5534 5534 5534 5533 5533 5532 5532 5531 5530 5528 5527 5526 5525 5524 5523 5522 5521 5520 5519 5518 5517 5516 5515 5513 5511 5508 5506 5504 5502 5500 5498 5495 5493 5491 5488 5486 5484 5482 5481 5480 5480 5480 5481 5482 5484 5486 5488 5491 5494 5497 5501 5504 5508 5513 5517 5521 5524 5526 5528 5530 5533
5541 5541 5541 5541 5541 5541 5541 5540 5540 5539 5539 5539 5538 5538 5537 5536 5536 5535 5534 5534 5533 5533 5532 5532 5532 5532 5532 5531 5531 5531 5531 5530 5530 5529 5527 5526 5525 5524 5523 5522 5521 5520 5519 5518 5517 5516 5515 5514 5513 5510 5508 5505 5503 5502 5500 5498 5495 5492 5490 5487 5483 5480 5477 5475 5473 5473 5473 5473 5474 5476 5478 5481 5483 5486 5489 5493 5495 5499 5502 5506 5510 5514 5517 5519 5521 5525 5529
5539 5539 5538 5538 5538 5538 5537 5537 5537 5536 5536 5535 5535 5534 5534 5533 5532 5531 5531 5530 5530 5530 5530 5530 5530 5530 5530 5530 5530 5530 5529 5529 5528 5527 5526 5525 5524 5523 5522 5521 5519 5518 5517 5516 5515 5514 5513 5512 5510 5508 5506 5503 5502 5500 5498 5496 5493 5490 5486 5482 5478 5473 5469 5467 5465 5465 5465 5467 5468 5470 5473 5476 5479 5482 5485 5488 5491 5494 5498 5501 5504 5508 5511 5513 5516 5520 5525
5536 5536 5536 5535 5535 5535 5534 5534 5534 5533 5533 5532 5532 5531 5530 5530 5529 5528 5528 5527 5527 5527 5528 5528 5528 5528 5528 5528 5528 5528 5528 5527 5527 5526 5525 5525 5524 5523 5521 5520 5519 5517 5516 5514 5513 5512 5511 5510 5508 5506 5504 5502 5501 5499 5497 5494 5491 5487 5483 5478 5473 5467 5463 5460 5459 5458 5459 5460 5463 5465 5468 5471 5475 5478 5482 5485 5488 5491 5493 5496 5499 5502 5505 5507 5510 5514 5519
5534 5533 5533 5532 5532 5532 5532 5531 5531 5530 5530 5529 5528 5528 5527 5526 5525 5525 5525 5525 5526 5526 5526 5526 5526 5526 5527 5527 5527 5527 5527 5526 5526 5526 5525 5525 5524 5523 5521 5520 5519 5517 5515 5514 5512 5510 5509 5508 5507 5505 5503 5501 5500 5498 5496 5493 5490 5486 5481 5475 5469 5463 5460 5457 5456 5455 5455 5457 5459 5461 5464 5467 5471 5475 5478 5481 5484 5487 5490 5492 5495 5498 5500 5503 5506 5509 5513
5531 5530 5530 5530 5529 5529 5529 5528 5528 5527 5527 5526 5526 5525 5524 5523 5523 5523 5523 5524 5524 5524 5524 5524 5525 5525 5525 5526 5526 5526 5526 5526 5525 5525 5525 5524 5523 5522 5521 5520 5519 5517 5516 5514 5512 5510 5508 5507 5505 5504 5503 5501 5499 5497 5495 5492 5489 5486 5480 5474 5467 5462 5459 5457 5456 5455 5455 5455 5457 5459 5462 5465 5468 5471 5474 5478 5481 5484 5486 5489 5492 5494 5496 5498 5501 5504 5508
5528 5528 5527 5527 5526 5526 5526 5525 5525 5525 5524 5524 5523 5522 5522 5521 5521 5521 5522 5522 5522 5522 5523 5523 5523 5524 5524 5525 5525 5525 5525 5525 5525 5524 5524 5523 5523 5522 5521 5520 5519 5517 5516 5514 5512 5510 5507 5506 5505 5504 5502 5500 5498 5496 5494 5492 5489 5486 5481 5475 5469 5464 5460 5459 5457 5456 5456 5456 5457 5459 5461 5464 5467 5470 5472 5476 5479 5481 5484 5487 5490 5491 5492 5494 5497 5500 5504
5525 5525 5524 5524 5524 5523 5523 5523 5522 5522 5522 5521 5520 5520 5519 5519 5519 5520 5520 5521 5521 5521 5521 5521 5522 5522 5523 5524 5524 5524 5524 5524 5524 5523 5523 5522 5522 5521 5520 5519 5518 5517 5516 5514 5512 5510 5507 5506 5504 5504 5502 5500 5498 5496 5494 5492 5489 5486 5482 5477 5472 5467 5464 5461 5460 5459 5459 5459 5460 5461 5463 5465 5467 5470 5472 5474 5477 5479 5482 5485 5487 5489 5491 5492 5495 5498 5502
5522 5522 5521 5521 5521 5520 5520 5520 5520 5519 5519 5519 5518 5518 5517 5517 5518 5518 5519 5519 5519 5519 5520 5520 5520 5521 5521 5522 5523 5523 5523 5523 5523 5523 5522 5522 5521 5520 5520 5519 5518 5517 5516 5515 5513 5510 5508 5506 5505 5504 5502 5500 5498 5496 5494 5492 5490 5487 5484 5480 5476 5472 5469 5466 5464 5463 5462 5462 5463 5464 5465 5466 5468 5469 5471 5473 5476 5478 5481 5484 5486 5488 5490 5492 5495 5497 5500
5519 5519 5518 5518 5518 5518 5517 5517 5517 5517 5516 5516 5516 5516 5515 5516 5516 5516 5517 5517 5518 5518 5518 5518 5519 5519 5520 5521 5521 5521 5522 5522 5522 5521 5521 5521 5520 5520 5519 5518 5518 5517 5516 5514 5513 5511 5509 5508 5506 5504 5502 5500 5498 5496 5494 5492 5490 5488 5485 5483 5480 5477 5474 5472 5470 5469 5468 5467 5467 5467 5467 5467 5468 5469 5470 5472 5474 5477 5480 5482 5484 5487 5489 5492 5495 5498 5501
5516 5516 5516 5515 5515 5515 5515 5514 5514 5514 5514 5514 5514 5513 5513 5514 5514 5515 5515 5515 5516 5516 5516 5517 5517 5518 5518 5519 5519 5519 5519 5520 5520 5520 5520 5520 5519 5519 5518 5518 5517 5516 5515 5514 5513 5512 5510 5509 5507 5505 5503 5500 5498 5496 5495 5493 5491 5489 5487 5485 5483 5480 5478 5476 5475 5473 5472 5472 5471 5470 5470 5470 5469 5469 5470 5471 5473 5476 5479 5481 5484 5487 5490 5493 5496 5499 5501
5513 5513 5513 5512 5512 5512 5512 5512 5512 5512 5512 5511 5511 5511 5511 5512 5512 5513 5513 5513 5514 5514 5514 5515 5515 5516 5517 5517 5517 5517 5517 5517 5517 5517 5518 5518 5518 5518 5517 5517 5516 5516 5515 5514 5513 5512 5511 5509 5508 5506 5504 5502 5499 5497 5495 5494 5492 5490 5488 5487 5485 5483 5482 5480 5479 5477 5476 5475 5475 5474 5473 5473 5473 5473 5473 5473 5475 5477 5480 5483 5486 5489 5492 5494 5497 5499 5501
5510 5509 5509 5509 5509 5509 5509 5509 5509 5509 5509 5509 5509 5509 5510 5510 5510 5511 5511 5511 5512 5512 5513 5513 5513 5514 5515 5515 5515 5515 5515 5515 5515 5516 5516 5517 5517 5517 5516 5516 5515 5515 5514 5514 5513 5512 5511 5510 5508 5507 5505 5503 5501 5499 5497 5495 5493 5492 5490 5489 5487 5486 5484 5483 5482 5481 5480 5479 5478 5478 5477 5477 5477 5477 5478 5479 5480 5483 5485 5487 5490 5492 5494 5495 5497 5499 5501
5507 5506 5506 5506 5506 5506 5506 5506 5506 5506 5506 5507 5507 5507 5508 5508 5508 5509 5509 5510 5510 5511 5511 5511 5512 5512 5513 5513 5514 5514 5514 5514 5514 5515 5515 5515 5515 5515 5515 5515 5515 5514 5514 5513 5512 5511 5511 5510 5509 5507 5506 5504 5502 5501 5499 5497 5495 5493 5492 5490 5489 5488 5486 5485 5484 5484 5483 5482 5482 5481 5481 5481 5481 5482 5483 5484 5485 5487 5489 5490 5492 5493 5495 5497 5498 5500 5501
5504 5503 5503 5503 5503 5503 5503 5503 5504 5504 5504 5504 5505 5505 5505 5506 5506 5507 5507 5508 5508 5509 5509 5510 5510 5511 5511 5511 5512 5512 5513 5513 5513 5514 5514 5514 5514 5514 5514 5514 5514 5514 5513 5512 5512 5511 5510 5510 5509 5508 5506 5505 5504 5502 5501 5499 5497 5496 5494 5492 5491 5489 5488 5487 5486 5485 5485 5484 5484 5484 5484 5484 5484 5485 5486 5487 5488 5490 5491 5492 5493 5495 5496 5497 5498 5500 5501
5501 5501 5500 5500 5500 5500 5500 5500 5501 5501 5501 5502 5502 5503 5503 5504 5504 5505 5505 5506 5506 5507 5507 5508 5509 5509 5509 5510 5510 5511 5511 5511 5512 5512 5512 5513 5513 5513 5513 5513 5513 5512 5512 5512 5511 5511 5510 5509 5509 5508 5507 5506 5504 5503 5502 5500 5499 5498 5496 5495 5493 5492 5490 5489 5488 5487 5487 5486 5486 5486 5486 5486 5486 5487 5488 5489 5490 5491 5492 5493 5494 5495 5496 5497 5498 5499 5500
5498 5498 5497 5497 5497 5497 5497 5497 5498 5498 5499 5499 5500 5500 5501 5502 5502 5503 5504 5504 5505 5505 5506 5506 5507 5508 5508 5508 5509 5509 5510 5510 5510 5511 5511 5511 5512 5512 5512 5511 5511 5511 5511 5511 5510 5510 5510 5509 5508 5508 5507 5506 5505 5504 5502 5501 5500 5499 5498 5497 5496 5494 5493 5492 5491 5490 5489 5488 5488 5487 5487 5488 5488 5488 5489 5489 5490 5491 5492 5493 5494 5495 5496 5496 5498 5499 5499
5494 5494 5494 5494 5494 5494 5494 5495 5495 5495 5496 5496 5497 5497 5498 5499 5500 5501 5502 5502 5503 5503 5504 5505 5505 5506 5507 5507 5508 5508 5508 5509 5509 5509 5510 5510 5510 5510 5510 5510 5510 5510 5510 5510 5510 5509 5509 5509 5508 5507 5507 5506 5505 5504 5503 5502 5501 5500 5499 5498 5497 5496 5495 5494 5493 5492 5491 5491 5490 5489 5489 5489 5489 5489 5490 5490 5491 5491 5492 5493 5494 5495 5495 5496 5497 5498 5499
5491 5491 5491 5491 5491 5491 5491 5491 5492 5492 5493 5493 5494 5494 5495 5496 5498 5498 5499 5500 5501 5501 5502 5503 5504 5504 5505 5506 5506 5507 5507 5507 5508 5508 5508 5509 5509 5509 5509 5509 5509 5509 5509 5509 5509 5509 5509 5508 5508 5507 5507 5506 5505 5504 5503 5503 5502 5501 5500 5499 5498 5498 5497 5496 5495 5495 5494 5493 5492 5492 5491 5491 5491 5491 5491 5491 5491 5492 5492 5493 5493 5494 5495 5496 5497 5498 5499
5487 5487 5488 5488 5488 5488 5488 5488 5488 5489 5489 5490 5490 5491 5493 5494 5495 5496 5497 5498 5499 5499 5500 5501 5501 5502 5503 5504 5505 5505 5506 5506 5506 5507 5507 5507 5507 5508 5508 5508 5508 5508 5508 5508 5508 5508 5508 5508 5507 5507 5506 5506 5505 5504 5504 5503 5502 5502 5501 5500 5499 5498 5498 5497 5496 5496 5495 5495 5494 5494 5493 5493 5493 5492 5492 5492 5492 5492 5492 5493 5493 5494 5494 5495 5496 5497 5498
5483 5483 5484 5484 5485 5485 5485 5485 5485 5486 5486 5486 5487 5488 5489 5491 5492 5493 5494 5495 5496 5497 5498 5498 5499 5500 5501 5502 5503 5503 5504 5504 5505 5505 5505 5506 5506 5506 5506 5507 5507 5507 5507 5507 5507 5507 5507 5506 5506 5506 5506 5505 5505 5504 5504 5503 5503 5502 5501 5501 5500 5499 5499 5498 5497 5497 5496 5496 5495 5495 5495 5494 5494 5494 5494 5493 5493 5493 5493 5493 5494 5494 5494 5495 5496 5496 5497
5480 5480 5480 5480 5481 5481 5482 5482 5482 5482 5483 5483 5484 5485 5486 5487 5489 5489 5490 5491 5493 5494 5495 5496 5497 5498 5498 5499 5500 5501 5502 5502 5503 5503 5504 5504 5504 5504 5505 5505 5505 5505 5506 5506 5506 5506 5505 5505 5505 5505 5505 5504 5504 5504 5503 5503 5502 5502 5501 5501 5500 5500 5499 5499 5498 5497 5497 5496 5496 5496 5495 5495 5495 5495 5494 5494 5494 5494 5494 5494 5495 5495 5495 5495 5496 5497 5497
5477 5477 5477 5477 5477 5477 5478 5479 5479 5479 5479 5480 5480 5481 5483 5484 5485 5485 5487 5488 5490 5491 5492 5493 5494 5495 5496 5497 5497 5498 5499 5500 5500 5501 5501 5502 5502 5503 5503 5503 5503 5504 5504 5504 5504 5504 5504 5504 5504 5503 5503 5503 5503 5503 5502 5502 5502 5501 5501 5500 5500 5499 5499 5498 5498 5497 5497 5497 5496 5496 5495 5495 5495 5495 5495 5494 5494 5494 5494 5495 5495 5495 5495 5496 5496 5496 5497
5473 5473 5473 5473 5473 5474 5474 5475 5475 5475 5476 5476 5477 5478 5479 5480 5481 5482 5483 5485 5486 5487 5488 5489 5490 5491 5492 5493 5494 5495 5496 5497 5498 5498 5499 5500 5500 5501 5501 5501 5501 5502 5502 5502 5502 5502 5502 5502 5502 5502 5502 5502 5502 5501 5501 5501 5500 5500 5500 5499 5499 5498 5498 5497 5497 5496 5496 5496 5495 5495 5495 5495 5494 5494 5494 5494 5494 5494 5494 5494 5494 5494 5494 5495 5495 5495 5496